Total_Precipitation_Accumulation
1.66 1.81 1.86 1.84 1.81 1.89 1.98 2.01 1.98 1.75 1.56 1.41 1.18 0.90 0.90 0.91 0.94 0.78 0.73 0.65 0.55 0.47 0.40 0.38 0.40 0.43 0.48 0.58 0.69 0.81 0.91 0.91 0.93 0.96 0.98 1.06 1.15 1.25
1.47 1.58 1.67 1.72 1.74 1.79 1.90 1.93 1.95 1.92 1.71 1.57 1.41 1.09 1.01 0.85 0.86 0.76 0.70 0.70 0.56 0.48 0.42 0.35 0.35 0.35 0.37 0.44 0.56 0.62 0.68 0.71 0.75 0.78 0.77 0.77 0.82 0.90
1.23 1.34 1.44 1.58 1.57 1.48 1.52 1.62 1.75 1.84 1.65 1.63 1.60 1.41 1.29 1.14 1.00 0.90 0.75 0.67 0.54 0.44 0.43 0.40 0.36 0.35 0.37 0.40 0.45 0.52 0.59 0.64 0.68 0.70 0.73 0.74 0.73 0.77
1.13 1.23 1.28 1.36 1.45 1.42 1.36 1.37 1.54 1.69 1.69 1.70 1.82 1.75 1.51 1.33 1.19 1.04 0.82 0.69 0.64 0.49 0.40 0.39 0.39 0.36 0.36 0.40 0.45 0.47 0.51 0.56 0.62 0.64 0.65 0.66 0.69 0.73
1.09 1.09 1.09 1.16 1.34 1.47 1.47 1.44 1.48 1.60 1.70 1.71 1.84 1.88 1.67 1.45 1.40 1.23 1.03 0.99 0.73 0.60 0.46 0.37 0.38 0.37 0.36 0.37 0.41 0.48 0.52 0.55 0.59 0.62 0.63 0.67 0.71 0.75
0.90 0.89 0.87 0.89 1.05 1.32 1.41 1.52 1.57 1.56 1.67 1.72 1.83 1.93 1.95 1.72 1.60 1.46 1.33 1.20 0.99 0.72 0.63 0.44 0.40 0.42 0.41 0.38 0.38 0.45 0.56 0.62 0.69 0.74 0.76 0.79 0.83 0.89
0.57 0.61 0.63 0.66 0.68 0.81 1.01 1.28 1.46 1.54 1.59 1.70 1.78 1.87 1.90 1.89 1.60 1.47 1.42 1.41 1.32 1.08 0.98 0.72 0.59 0.54 0.48 0.42 0.38 0.42 0.54 0.68 0.79 0.90 0.94 0.98 1.02 1.06
0.39 0.40 0.40 0.41 0.43 0.50 0.59 0.79 1.04 1.28 1.52 1.68 1.75 1.79 1.83 1.85 1.78 1.65 1.55 1.43 1.44 1.31 1.19 1.15 1.01 0.98 0.76 0.48 0.39 0.38 0.48 0.62 0.79 0.96 1.07 1.15 1.21 1.27
0.36 0.37 0.30 0.26 0.31 0.38 0.42 0.47 0.61 0.75 0.92 1.29 1.57 1.61 1.66 1.73 1.85 1.82 1.72 1.67 1.62 1.51 1.45 1.53 1.41 1.33 1.01 0.79 0.65 0.45 0.42 0.50 0.64 0.84 1.05 1.19 1.36 1.47
0.36 0.37 0.35 0.31 0.31 0.36 0.43 0.45 0.41 0.45 0.54 0.67 0.85 1.03 1.23 1.51 1.73 1.86 1.95 2.00 2.04 1.88 1.74 1.84 1.71 1.60 1.39 1.09 0.81 0.59 0.46 0.43 0.50 0.64 0.85 1.06 1.23 1.41
0.38 0.38 0.39 0.35 0.30 0.26 0.34 0.43 0.42 0.42 0.43 0.49 0.57 0.74 0.91 1.11 1.37 1.57 1.69 1.85 2.12 2.17 1.95 1.94 1.93 1.84 1.90 1.76 1.28 0.91 0.65 0.52 0.49 0.55 0.64 0.75 0.92 1.10
0.45 0.43 0.40 0.35 0.30 0.25 0.30 0.39 0.42 0.41 0.44 0.48 0.49 0.52 0.59 0.70 0.89 1.09 1.21 1.39 1.65 1.90 1.75 1.67 1.84 1.96 2.22 2.20 1.83 1.40 1.00 0.77 0.64 0.57 0.58 0.59 0.65 0.73
0.53 0.51 0.50 0.40 0.29 0.27 0.30 0.36 0.38 0.42 0.51 0.58 0.62 0.63 0.62 0.60 0.65 0.78 0.95 1.01 1.12 1.21 1.21 1.29 1.42 1.57 1.76 1.94 1.92 1.78 1.55 1.23 0.96 0.79 0.68 0.66 0.70 0.70
0.68 0.66 0.61 0.48 0.38 0.32 0.31 0.31 0.31 0.33 0.43 0.54 0.61 0.66 0.66 0.59 0.58 0.66 0.83 0.97 0.98 0.98 0.98 1.05 1.13 1.16 1.22 1.31 1.46 1.52 1.53 1.48 1.35 1.22 1.07 0.95 0.82 0.81
0.68 0.67 0.61 0.49 0.44 0.40 0.39 0.36 0.32 0.35 0.42 0.47 0.52 0.60 0.61 0.59 0.61 0.72 0.85 0.98 1.02 0.95 0.90 0.89 0.94 0.94 0.95 0.98 1.01 1.08 1.22 1.35 1.35 1.34 1.37 1.33 1.15 1.00
0.59 0.64 0.64 0.58 0.50 0.50 0.49 0.43 0.38 0.41 0.46 0.48 0.51 0.59 0.67 0.69 0.70 0.69 0.77 0.87 0.99 1.01 0.95 0.86 0.87 0.91 0.89 0.86 0.87 0.89 0.93 1.06 1.12 1.14 1.28 1.44 1.50 1.42
0.70 0.79 0.82 0.75 0.67 0.64 0.63 0.60 0.57 0.53 0.49 0.51 0.56 0.63 0.69 0.71 0.72 0.74 0.77 0.79 0.80 0.85 0.87 0.87 0.85 0.89 0.89 0.85 0.87 0.84 0.81 0.80 0.82 0.91 1.11 1.29 1.31 1.28
0.75 0.82 0.92 0.95 0.88 0.80 0.75 0.73 0.71 0.64 0.57 0.56 0.58 0.61 0.64 0.68 0.69 0.76 0.81 0.80 0.78 0.76 0.80 0.78 0.79 0.84 0.92 0.91 0.78 0.74 0.75 0.70 0.67 0.72 0.82 0.94 1.01 0.98
0.72 0.82 0.92 0.98 1.00 0.96 0.88 0.79 0.76 0.70 0.64 0.63 0.62 0.64 0.64 0.68 0.70 0.73 0.77 0.79 0.79 0.77 0.80 0.82 0.76 0.69 0.69 0.71 0.66 0.52 0.55 0.57 0.54 0.58 0.61 0.64 0.75 0.76
0.71 0.83 0.93 0.96 1.01 1.01 0.94 0.89 0.84 0.78 0.72 0.68 0.66 0.68 0.66 0.68 0.69 0.70 0.71 0.72 0.75 0.78 0.80 0.80 0.78 0.69 0.62 0.55 0.56 0.53 0.39 0.42 0.43 0.46 0.46 0.49 0.49 0.49
0.72 0.84 0.93 0.96 0.95 0.93 0.89 0.87 0.81 0.75 0.73 0.71 0.69 0.69 0.68 0.68 0.71 0.73 0.70 0.72 0.74 0.75 0.72 0.64 0.63 0.75 0.83 0.85 0.78 0.73 0.59 0.43 0.39 0.35 0.35 0.39 0.45 0.44
0.68 0.79 0.88 0.91 0.89 0.86 0.82 0.77 0.75 0.73 0.70 0.69 0.70 0.69 0.69 0.69 0.66 0.68 0.70 0.67 0.67 0.70 0.67 0.69 0.74 0.76 0.83 0.89 0.84 0.77 0.72 0.62 0.49 0.45 0.39 0.31 0.27 0.32
0.63 0.75 0.83 0.83 0.80 0.76 0.74 0.69 0.66 0.67 0.65 0.63 0.66 0.68 0.69 0.68 0.63 0.62 0.63 0.63 0.62 0.66 0.71 0.75 0.82 0.79 0.74 0.79 0.84 0.81 0.73 0.66 0.58 0.51 0.44 0.32 0.22 0.18